Time,TemperatureF,DewpointF,PressureIn,WindDirection,WindDirectionDegrees,WindSpeedMPH,WindSpeedGustMPH,Humidity,HourlyPrecipIn,Conditions,Clouds,dailyrainin,SoftwareType,DateUTC
2013-07-07 00:03:00,81.5,62.7,29.92,ESE,121,3.0,5.0,53,0.00,,,0.00,Wunderground v.1.15,2013-07-07 05:03:00,
2013-07-07 00:09:00,81.4,62.6,29.91,SE,130,3.0,6.0,53,0.00,,,0.00,Wunderground v.1.15,2013-07-07 05:09:00,
2013-07-07 00:15:00,81.2,62.4,29.92,SE,130,3.0,8.0,53,0.00,,,0.00,Wunderground v.1.15,2013-07-07 05:15:00,
2013-07-07 00:21:00,81.0,62.8,29.92,SE,130,3.0,3.0,54,0.00,,,0.00,Wunderground v.1.15,2013-07-07 05:21:00,
2013-07-07 00:27:00,80.9,62.7,29.92,ESE,121,3.0,9.0,54,0.00,,,0.00,Wunderground v.1.15,2013-07-07 05:27:00,
2013-07-07 00:33:00,80.8,62.6,29.92,SE,128,3.0,3.0,54,0.00,,,0.00,Wunderground v.1.15,2013-07-07 05:33:00,
2013-07-07 00:39:00,80.6,62.9,29.92,SE,136,3.0,5.0,55,0.00,,,0.00,Wunderground v.1.15,2013-07-07 05:39:00,
2013-07-07 00:45:00,80.4,62.8,29.92,SE,140,3.0,3.0,55,0.00,,,0.00,Wunderground v.1.15,2013-07-07 05:45:00,
2013-07-07 00:51:00,80.2,63.0,29.91,East,95,3.0,7.0,56,0.00,,,0.00,weatherlink.com 1.10,2013-07-07 05:51:00,
2013-07-07 00:56:00,80.0,62.9,29.92,SE,130,2.0,5.0,56,0.00,,,0.00,Wunderground v.1.15,2013-07-07 05:56:00,
2013-07-07 01:01:00,79.9,62.8,29.92,ESE,115,3.0,5.0,56,0.00,,,0.00,Wunderground v.1.15,2013-07-07 06:01:00,
2013-07-07 01:07:00,79.7,63.1,29.91,ESE,115,3.0,7.0,57,0.00,,,0.00,Wunderground v.1.15,2013-07-07 06:07:00,
2013-07-07 01:12:00,79.5,62.9,29.91,SE,135,3.0,3.0,57,0.00,,,0.00,Wunderground v.1.15,2013-07-07 06:12:00,
2013-07-07 01:18:00,79.3,63.2,29.91,ESE,121,3.0,5.0,58,0.00,,,0.00,Wunderground v.1.15,2013-07-07 06:18:00,
2013-07-07 01:23:00,79.2,63.1,29.91,SE,135,3.0,3.0,58,0.00,,,0.00,Wunderground v.1.15,2013-07-07 06:23:00,
2013-07-07 01:28:00,79.1,63.1,29.91,ESE,113,3.0,4.0,58,0.00,,,0.00,Wunderground v.1.15,2013-07-07 06:28:00,
2013-07-07 01:34:00,78.9,63.4,29.91,ENE,66,3.0,7.0,59,0.00,,,0.00,Wunderground v.1.15,2013-07-07 06:34:00,
2013-07-07 01:40:00,78.7,63.2,29.91,ESE,119,3.0,4.0,59,0.00,,,0.00,Wunderground v.1.15,2013-07-07 06:40:00,
2013-07-07 01:46:00,78.6,63.1,29.91,ESE,123,3.0,7.0,59,0.00,,,0.00,Wunderground v.1.15,2013-07-07 06:46:00,
2013-07-07 01:52:00,78.5,63.5,29.91,SE,126,3.0,5.0,60,0.00,,,0.00,Wunderground v.1.15,2013-07-07 06:52:00,
2013-07-07 01:58:00,78.4,63.4,29.91,SE,128,3.0,6.0,60,0.00,,,0.00,Wunderground v.1.15,2013-07-07 06:58:00,
2013-07-07 02:03:00,78.4,63.8,29.91,NE,43,3.0,3.0,61,0.00,,,0.00,Wunderground v.1.15,2013-07-07 07:03:00,
2013-07-07 02:09:00,78.2,63.6,29.91,ESE,119,3.0,5.0,61,0.00,,,0.00,Wunderground v.1.15,2013-07-07 07:09:00,
2013-07-07 02:15:00,78.2,63.6,29.91,ESE,117,3.0,5.0,61,0.00,,,0.00,Wunderground v.1.15,2013-07-07 07:15:00,
2013-07-07 02:21:00,78.2,64.0,29.91,SE,131,6.0,10.0,61,0.00,,,0.00,weatherlink.com 1.10,2013-07-07 07:21:00,
2013-07-07 02:26:00,78.2,63.6,29.91,SE,136,4.0,5.0,61,0.00,,,0.00,Wunderground v.1.15,2013-07-07 07:26:00,
2013-07-07 02:31:00,78.1,64.0,29.91,ESE,119,4.0,4.0,62,0.00,,,0.00,Wunderground v.1.15,2013-07-07 07:31:00,
2013-07-07 02:37:00,77.9,64.0,29.91,SE,127,5.0,9.0,62,0.00,,,0.00,weatherlink.com 1.10,2013-07-07 07:37:00,
2013-07-07 02:42:00,77.8,63.7,29.91,East,90,3.0,5.0,62,0.00,,,0.00,Wunderground v.1.15,2013-07-07 07:42:00,
2013-07-07 02:48:00,77.7,64.1,29.91,SE,140,3.0,8.0,63,0.00,,,0.00,Wunderground v.1.15,2013-07-07 07:48:00,
2013-07-07 02:53:00,77.6,64.0,29.91,ESE,102,4.0,8.0,63,0.00,,,0.00,Wunderground v.1.15,2013-07-07 07:53:00,
2013-07-07 02:59:00,77.5,63.9,29.91,East,101,4.0,8.0,63,0.00,,,0.00,Wunderground v.1.15,2013-07-07 07:59:00,
2013-07-07 03:04:00,77.4,63.8,29.91,SE,146,3.0,6.0,63,0.00,,,0.00,Wunderground v.1.15,2013-07-07 08:04:00,
2013-07-07 03:09:00,77.3,64.2,29.91,SSE,150,3.0,6.0,64,0.00,,,0.00,Wunderground v.1.15,2013-07-07 08:09:00,
2013-07-07 03:14:00,77.2,64.1,29.91,SE,128,4.0,6.0,64,0.00,,,0.00,Wunderground v.1.15,2013-07-07 08:14:00,
2013-07-07 03:20:00,77.1,64.0,29.91,ESE,123,4.0,4.0,64,0.00,,,0.00,Wunderground v.1.15,2013-07-07 08:20:00,
2013-07-07 03:25:00,77.1,64.4,29.91,East,90,4.0,5.0,65,0.00,,,0.00,Wunderground v.1.15,2013-07-07 08:25:00,
2013-07-07 03:30:00,76.9,64.2,29.91,ESE,117,4.0,4.0,65,0.00,,,0.00,Wunderground v.1.15,2013-07-07 08:30:00,
2013-07-07 03:35:00,76.9,64.2,29.91,East,99,3.0,7.0,65,0.00,,,0.00,Wunderground v.1.15,2013-07-07 08:35:00,
2013-07-07 03:41:00,76.9,64.2,29.91,ESE,119,4.0,4.0,65,0.00,,,0.00,Wunderground v.1.15,2013-07-07 08:41:00,
2013-07-07 03:46:00,76.7,64.0,29.91,ESE,117,3.0,5.0,65,0.00,,,0.00,Wunderground v.1.15,2013-07-07 08:46:00,
2013-07-07 03:52:00,76.6,64.0,29.91,SE,129,4.0,8.0,66,0.00,,,0.00,weatherlink.com 1.10,2013-07-07 08:52:00,
2013-07-07 03:57:00,76.5,64.3,29.92,ESE,119,3.0,9.0,66,0.00,,,0.00,Wunderground v.1.15,2013-07-07 08:57:00,
2013-07-07 04:02:00,76.5,64.3,29.92,ESE,111,3.0,3.0,66,0.00,,,0.00,Wunderground v.1.15,2013-07-07 09:02:00,
2013-07-07 04:08:00,76.4,64.6,29.92,ESE,113,3.0,8.0,67,0.00,,,0.00,Wunderground v.1.15,2013-07-07 09:08:00,
2013-07-07 04:14:00,76.3,64.5,29.92,SE,134,4.0,8.0,67,0.00,,,0.00,Wunderground v.1.15,2013-07-07 09:14:00,
2013-07-07 04:20:00,76.2,64.4,29.92,SE,136,4.0,5.0,67,0.00,,,0.00,Wunderground v.1.15,2013-07-07 09:20:00,
2013-07-07 04:25:00,76.2,64.9,29.92,SE,133,4.0,5.0,68,0.00,,,0.00,Wunderground v.1.15,2013-07-07 09:25:00,
2013-07-07 04:31:00,76.1,64.8,29.92,SSE,149,4.0,4.0,68,0.00,,,0.00,Wunderground v.1.15,2013-07-07 09:31:00,
2013-07-07 04:36:00,76.0,64.7,29.92,ESE,102,4.0,5.0,68,0.00,,,0.00,Wunderground v.1.15,2013-07-07 09:36:00,
2013-07-07 04:42:00,75.9,64.6,29.92,East,94,4.0,4.0,68,0.00,,,0.00,Wunderground v.1.15,2013-07-07 09:42:00,
2013-07-07 04:47:00,75.9,64.6,29.92,SE,141,4.0,5.0,68,0.00,,,0.00,Wunderground v.1.15,2013-07-07 09:47:00,
2013-07-07 04:53:00,75.9,65.0,29.92,SSE,155,4.0,7.0,69,0.00,,,0.00,Wunderground v.1.15,2013-07-07 09:53:00,
2013-07-07 04:58:00,75.9,65.0,29.92,SE,143,4.0,7.0,69,0.00,,,0.00,Wunderground v.1.15,2013-07-07 09:58:00,
2013-07-07 05:04:00,75.8,64.9,29.92,SE,134,4.0,5.0,69,0.00,,,0.00,Wunderground v.1.15,2013-07-07 10:04:00,
2013-07-07 05:10:00,75.8,64.9,29.92,SSE,168,3.0,3.0,69,0.00,,,0.00,Wunderground v.1.15,2013-07-07 10:10:00,
2013-07-07 05:16:00,75.7,65.2,29.92,SE,132,3.0,8.0,70,0.00,,,0.00,Wunderground v.1.15,2013-07-07 10:16:00,
2013-07-07 05:21:00,75.7,65.2,29.92,ESE,121,3.0,7.0,70,0.00,,,0.00,Wunderground v.1.15,2013-07-07 10:21:00,
2013-07-07 05:26:00,75.7,65.2,29.92,SE,146,4.0,7.0,70,0.00,,,0.00,Wunderground v.1.15,2013-07-07 10:26:00,
2013-07-07 05:32:00,75.6,65.1,29.92,SE,138,4.0,4.0,70,0.00,,,0.00,Wunderground v.1.15,2013-07-07 10:32:00,
2013-07-07 05:38:00,75.5,65.0,29.92,SE,138,2.0,9.0,71,0.00,,,0.00,weatherlink.com 1.10,2013-07-07 10:38:00,
2013-07-07 05:43:00,75.5,65.4,29.92,SE,127,3.0,4.0,71,0.00,,,0.00,Wunderground v.1.15,2013-07-07 10:43:00,
2013-07-07 05:49:00,75.5,65.4,29.92,SE,141,2.0,7.0,71,0.00,,,0.00,Wunderground v.1.15,2013-07-07 10:49:00,
2013-07-07 05:54:00,75.4,65.7,29.92,SE,136,3.0,3.0,72,0.00,,,0.00,Wunderground v.1.15,2013-07-07 10:54:00,
2013-07-07 05:59:00,75.4,65.7,29.92,SSE,157,2.0,9.0,72,0.00,,,0.00,Wunderground v.1.15,2013-07-07 10:59:00,
2013-07-07 06:05:00,75.3,65.6,29.93,ESE,118,2.0,5.0,72,0.00,,,0.00,Wunderground v.1.15,2013-07-07 11:05:00,
2013-07-07 06:11:00,75.3,65.6,29.93,SE,140,3.0,4.0,72,0.00,,,0.00,Wunderground v.1.15,2013-07-07 11:11:00,
2013-07-07 06:16:00,75.2,65.6,29.93,SE,132,3.0,7.0,72,0.00,,,0.00,Wunderground v.1.15,2013-07-07 11:16:00,
2013-07-07 06:21:00,75.1,65.9,29.93,SE,141,3.0,5.0,73,0.00,,,0.00,Wunderground v.1.15,2013-07-07 11:21:00,
2013-07-07 06:27:00,75.0,65.8,29.93,SE,138,3.0,5.0,73,0.00,,,0.00,Wunderground v.1.15,2013-07-07 11:27:00,
2013-07-07 06:33:00,74.9,65.7,29.93,ESE,120,3.0,7.0,73,0.00,,,0.00,Wunderground v.1.15,2013-07-07 11:33:00,
2013-07-07 06:38:00,74.9,66.1,29.93,SSE,154,3.0,7.0,74,0.00,,,0.00,Wunderground v.1.15,2013-07-07 11:38:00,
2013-07-07 06:44:00,74.8,66.0,29.94,SE,126,3.0,3.0,74,0.00,,,0.00,Wunderground v.1.15,2013-07-07 11:44:00,
2013-07-07 06:50:00,74.9,66.4,29.94,SE,136,1.0,1.0,75,0.00,,,0.00,Wunderground v.1.15,2013-07-07 11:50:00,
2013-07-07 06:55:00,74.9,66.4,29.94,ESE,115,2.0,4.0,75,0.00,,,0.00,Wunderground v.1.15,2013-07-07 11:55:00,
2013-07-07 07:00:00,74.9,66.4,29.94,SE,125,2.0,2.0,75,0.00,,,0.00,Wunderground v.1.15,2013-07-07 12:00:00,
2013-07-07 07:06:00,74.9,66.8,29.94,South,189,2.0,4.0,76,0.00,,,0.00,Wunderground v.1.15,2013-07-07 12:06:00,
2013-07-07 07:07:00,74.9,67.0,29.95,South,173,3.0,5.0,75,0.00,,,0.00,weatherlink.com 1.10,2013-07-07 12:07:00,
2013-07-07 07:13:00,75.0,66.9,29.95,SE,128,2.0,5.0,76,0.00,,,0.00,Wunderground v.1.15,2013-07-07 12:13:00,
2013-07-07 07:19:00,75.2,67.1,29.95,SE,138,3.0,5.0,76,0.00,,,0.00,Wunderground v.1.15,2013-07-07 12:19:00,
2013-07-07 07:24:00,75.4,67.3,29.95,ESE,121,2.0,4.0,76,0.00,,,0.00,Wunderground v.1.15,2013-07-07 12:24:00,
2013-07-07 07:30:00,75.6,67.5,29.95,SE,143,2.0,2.0,76,0.00,,,0.00,Wunderground v.1.15,2013-07-07 12:30:00,
2013-07-07 07:35:00,75.7,67.6,29.95,SSE,154,2.0,2.0,76,0.00,,,0.00,Wunderground v.1.15,2013-07-07 12:35:00,
2013-07-07 07:41:00,76.1,68.0,29.95,SSE,150,1.0,3.0,76,0.00,,,0.00,Wunderground v.1.15,2013-07-07 12:41:00,
2013-07-07 07:46:00,76.4,68.3,29.95,South,184,2.0,4.0,76,0.00,,,0.00,Wunderground v.1.15,2013-07-07 12:46:00,
2013-07-07 07:51:00,76.8,68.7,29.96,South,170,2.0,6.0,76,0.00,,,0.00,Wunderground v.1.15,2013-07-07 12:51:00,
2013-07-07 07:57:00,77.1,68.9,29.96,South,172,2.0,7.0,76,0.00,,,0.00,Wunderground v.1.15,2013-07-07 12:57:00,
2013-07-07 08:03:00,77.4,69.2,29.96,South,186,2.0,6.0,76,0.00,,,0.00,Wunderground v.1.15,2013-07-07 13:03:00,
2013-07-07 08:09:00,77.9,69.7,29.97,South,180,2.0,6.0,76,0.00,,,0.00,Wunderground v.1.15,2013-07-07 13:09:00,
2013-07-07 08:14:00,78.3,69.7,29.96,SE,144,2.0,2.0,75,0.00,,,0.00,Wunderground v.1.15,2013-07-07 13:14:00,
2013-07-07 08:20:00,78.6,70.0,29.96,SSW,205,1.0,2.0,75,0.00,,,0.00,Wunderground v.1.15,2013-07-07 13:20:00,
2013-07-07 08:26:00,79.0,70.4,29.97,SSW,194,1.0,2.0,75,0.00,,,0.00,Wunderground v.1.15,2013-07-07 13:26:00,
2013-07-07 08:31:00,79.6,70.6,29.97,SSE,161,1.0,4.0,74,0.00,,,0.00,Wunderground v.1.15,2013-07-07 13:31:00,
2013-07-07 08:37:00,80.6,71.1,29.97,South,181,1.0,4.0,73,0.00,,,0.00,Wunderground v.1.15,2013-07-07 13:37:00,
2013-07-07 08:43:00,81.4,71.5,29.97,South,178,2.0,3.0,72,0.00,,,0.00,Wunderground v.1.15,2013-07-07 13:43:00,
2013-07-07 08:48:00,81.9,71.2,29.97,South,181,2.0,4.0,70,0.00,,,0.00,Wunderground v.1.15,2013-07-07 13:48:00,
2013-07-07 08:54:00,82.2,71.4,29.97,SSE,163,2.0,4.0,70,0.00,,,0.00,Wunderground v.1.15,2013-07-07 13:54:00,
2013-07-07 09:00:00,82.8,72.0,29.97,SSE,163,2.0,2.0,70,0.00,,,0.00,Wunderground v.1.15,2013-07-07 14:00:00,
2013-07-07 09:06:00,83.4,71.7,29.97,South,171,2.0,4.0,68,0.00,,,0.00,Wunderground v.1.15,2013-07-07 14:06:00,
2013-07-07 09:12:00,83.9,72.2,29.97,South,190,2.0,2.0,68,0.00,,,0.00,Wunderground v.1.15,2013-07-07 14:12:00,
2013-07-07 09:18:00,84.2,72.0,29.97,SSE,148,2.0,2.0,67,0.00,,,0.00,Wunderground v.1.15,2013-07-07 14:18:00,
2013-07-07 09:24:00,84.7,73.0,29.97,South,176,4.0,6.0,67,0.00,,,0.00,weatherlink.com 1.10,2013-07-07 14:24:00,
2013-07-07 09:29:00,85.0,72.4,29.97,South,174,2.0,5.0,66,0.00,,,0.00,Wunderground v.1.15,2013-07-07 14:29:00,
2013-07-07 09:35:00,85.4,72.3,29.97,SSE,163,2.0,3.0,65,0.00,,,0.00,Wunderground v.1.15,2013-07-07 14:35:00,
2013-07-07 09:41:00,85.8,72.7,29.97,South,170,2.0,4.0,65,0.00,,,0.00,Wunderground v.1.15,2013-07-07 14:41:00,
2013-07-07 09:47:00,86.0,72.9,29.98,South,173,2.0,4.0,65,0.00,,,0.00,Wunderground v.1.15,2013-07-07 14:47:00,
2013-07-07 09:53:00,86.5,73.0,29.98,South,189,2.0,5.0,64,0.00,,,0.00,weatherlink.com 1.10,2013-07-07 14:53:00,
2013-07-07 09:58:00,86.9,73.3,29.98,SSE,163,1.0,4.0,64,0.00,,,0.00,Wunderground v.1.15,2013-07-07 14:58:00,
2013-07-07 10:03:00,87.2,73.5,29.98,SSE,165,1.0,3.0,64,0.00,,,0.00,Wunderground v.1.15,2013-07-07 15:03:00,
2013-07-07 10:09:00,87.3,73.6,29.98,SSE,155,1.0,3.0,64,0.00,,,0.00,Wunderground v.1.15,2013-07-07 15:09:00,
2013-07-07 10:14:00,87.3,73.2,29.98,NNE,31,1.0,2.0,63,0.00,,,0.00,Wunderground v.1.15,2013-07-07 15:14:00,
2013-07-07 10:20:00,87.2,73.1,29.98,NNE,19,0.0,1.0,63,0.00,,,0.00,Wunderground v.1.15,2013-07-07 15:20:00,
2013-07-07 10:25:00,87.0,73.8,29.98,NNE,24,0.0,2.0,65,0.00,,,0.00,Wunderground v.1.15,2013-07-07 15:25:00,
2013-07-07 10:30:00,86.6,73.0,29.98,NW,319,0.0,1.0,64,0.00,,,0.00,Wunderground v.1.15,2013-07-07 15:30:00,
2013-07-07 10:35:00,86.2,73.0,29.98,NW,319,0.0,1.0,65,0.00,,,0.00,Wunderground v.1.15,2013-07-07 15:35:00,
2013-07-07 10:40:00,86.4,73.7,29.98,West,281,0.0,1.0,66,0.00,,,0.00,Wunderground v.1.15,2013-07-07 15:40:00,
2013-07-07 10:46:00,86.4,73.2,29.98,West,280,1.0,3.0,65,0.00,,,0.00,Wunderground v.1.15,2013-07-07 15:46:00,
2013-07-07 10:51:00,86.8,73.2,29.98,SW,216,1.0,1.0,64,0.00,,,0.00,Wunderground v.1.15,2013-07-07 15:51:00,
2013-07-07 10:57:00,87.4,73.7,29.98,West,259,0.0,4.0,64,0.00,,,0.00,Wunderground v.1.15,2013-07-07 15:57:00,
2013-07-07 11:03:00,87.7,73.5,29.98,WSW,251,0.0,2.0,63,0.00,,,0.00,Wunderground v.1.15,2013-07-07 16:03:00,
2013-07-07 11:08:00,87.8,73.2,29.98,SSW,196,1.0,2.0,62,0.00,,,0.00,Wunderground v.1.15,2013-07-07 16:08:00,
2013-07-07 11:14:00,88.1,73.9,29.98,WSW,254,0.0,2.0,63,0.00,,,0.00,Wunderground v.1.15,2013-07-07 16:14:00,
2013-07-07 11:20:00,88.4,73.7,29.98,SSE,168,0.0,0.0,62,0.00,,,0.00,Wunderground v.1.15,2013-07-07 16:20:00,
2013-07-07 11:25:00,88.2,74.0,29.98,South,171,1.0,1.0,63,0.00,,,0.00,Wunderground v.1.15,2013-07-07 16:25:00,
2013-07-07 11:30:00,87.8,73.2,29.98,South,171,0.0,0.0,62,0.00,,,0.00,Wunderground v.1.15,2013-07-07 16:30:00,
2013-07-07 11:35:00,87.3,72.2,29.98,South,173,0.0,1.0,61,0.00,,,0.00,Wunderground v.1.15,2013-07-07 16:35:00,
2013-07-07 11:41:00,87.2,73.1,29.97,South,178,0.0,0.0,63,0.00,,,0.00,Wunderground v.1.15,2013-07-07 16:41:00,
2013-07-07 11:47:00,87.5,72.4,29.97,SW,222,0.0,2.0,61,0.00,,,0.00,Wunderground v.1.15,2013-07-07 16:47:00,
2013-07-07 11:53:00,88.4,72.7,29.97,West,260,1.0,1.0,60,0.00,,,0.00,Wunderground v.1.15,2013-07-07 16:53:00,
2013-07-07 11:59:00,89.9,73.1,29.97,SW,232,1.0,2.0,58,0.00,,,0.00,Wunderground v.1.15,2013-07-07 16:59:00,
2013-07-07 12:04:00,90.1,73.3,29.97,SSE,155,0.0,1.0,58,0.00,,,0.00,Wunderground v.1.15,2013-07-07 17:04:00,
2013-07-07 12:09:00,90.1,72.3,29.97,WSW,257,1.0,3.0,56,0.00,,,0.00,Wunderground v.1.15,2013-07-07 17:09:00,
2013-07-07 12:15:00,90.6,72.8,29.97,West,270,1.0,2.0,56,0.00,,,0.00,Wunderground v.1.15,2013-07-07 17:15:00,
2013-07-07 12:20:00,90.5,71.6,29.97,South,180,0.0,1.0,54,0.00,,,0.00,Wunderground v.1.15,2013-07-07 17:20:00,
2013-07-07 12:26:00,89.8,72.5,29.97,South,179,0.0,1.0,57,0.00,,,0.00,Wunderground v.1.15,2013-07-07 17:26:00,
2013-07-07 12:31:00,90.3,72.5,29.97,SSW,208,0.0,1.0,56,0.00,,,0.00,Wunderground v.1.15,2013-07-07 17:31:00,
2013-07-07 12:37:00,91.2,72.2,29.96,South,169,1.0,1.0,54,0.00,,,0.00,Wunderground v.1.15,2013-07-07 17:37:00,
2013-07-07 12:43:00,90.6,71.7,29.96,SW,227,1.0,2.0,54,0.00,,,0.00,Wunderground v.1.15,2013-07-07 17:43:00,
2013-07-07 12:48:00,90.1,71.8,29.96,SW,227,0.0,2.0,55,0.00,,,0.00,Wunderground v.1.15,2013-07-07 17:48:00,
2013-07-07 12:54:00,90.7,74.0,29.96,ESE,111,2.0,4.0,58,0.00,,,0.00,weatherlink.com 1.10,2013-07-07 17:54:00,
2013-07-07 12:59:00,91.0,69.8,29.96,South,190,2.0,4.0,50,0.00,,,0.00,Wunderground v.1.15,2013-07-07 17:59:00,
2013-07-07 13:04:00,91.5,70.2,29.96,South,176,2.0,4.0,50,0.00,,,0.00,Wunderground v.1.15,2013-07-07 18:04:00,
2013-07-07 13:10:00,92.4,69.9,29.95,SE,127,3.0,3.0,48,0.00,,,0.00,Wunderground v.1.15,2013-07-07 18:10:00,
2013-07-07 13:16:00,91.8,70.5,29.95,SE,134,2.0,4.0,50,0.00,,,0.00,Wunderground v.1.15,2013-07-07 18:16:00,
2013-07-07 13:21:00,92.5,69.3,29.95,SE,140,2.0,8.0,47,0.00,,,0.00,Wunderground v.1.15,2013-07-07 18:21:00,
2013-07-07 13:27:00,92.6,68.2,29.94,SSE,165,3.0,8.0,45,0.00,,,0.00,Wunderground v.1.15,2013-07-07 18:27:00,
2013-07-07 13:32:00,92.2,67.8,29.95,ESE,119,3.0,5.0,45,0.00,,,0.00,Wunderground v.1.15,2013-07-07 18:32:00,
2013-07-07 13:38:00,92.3,67.2,29.95,SE,134,2.0,5.0,44,0.00,,,0.00,Wunderground v.1.15,2013-07-07 18:38:00,
2013-07-07 13:44:00,92.1,67.7,29.95,SE,131,3.0,8.0,45,0.00,,,0.00,Wunderground v.1.15,2013-07-07 18:44:00,
2013-07-07 13:50:00,92.9,68.4,29.95,SE,126,3.0,3.0,45,0.00,,,0.00,Wunderground v.1.15,2013-07-07 18:50:00,
2013-07-07 13:55:00,92.9,67.8,29.94,South,185,3.0,4.0,44,0.00,,,0.00,Wunderground v.1.15,2013-07-07 18:55:00,
2013-07-07 14:00:00,92.9,67.8,29.94,ESE,111,3.0,7.0,44,0.00,,,0.00,Wunderground v.1.15,2013-07-07 19:00:00,
2013-07-07 14:06:00,94.1,66.8,29.94,South,178,3.0,7.0,41,0.00,,,0.00,Wunderground v.1.15,2013-07-07 19:06:00,
2013-07-07 14:12:00,94.6,68.6,29.94,ESE,121,2.0,3.0,43,0.00,,,0.00,Wunderground v.1.15,2013-07-07 19:12:00,
2013-07-07 14:17:00,93.8,67.2,29.94,SSE,153,2.0,3.0,42,0.00,,,0.00,Wunderground v.1.15,2013-07-07 19:17:00,
2013-07-07 14:23:00,94.7,68.7,29.94,ESE,123,2.0,4.0,43,0.00,,,0.00,Wunderground v.1.15,2013-07-07 19:23:00,
2013-07-07 14:29:00,95.1,67.7,29.94,South,190,2.0,4.0,41,0.00,,,0.00,Wunderground v.1.15,2013-07-07 19:29:00,
2013-07-07 14:34:00,94.8,68.8,29.94,ESE,122,2.0,7.0,43,0.00,,,0.00,Wunderground v.1.15,2013-07-07 19:34:00,
2013-07-07 14:40:00,93.7,67.0,29.94,SE,143,6.0,10.0,41,0.00,,,0.00,weatherlink.com 1.10,2013-07-07 19:40:00,
2013-07-07 14:45:00,93.4,69.5,29.94,SE,140,3.0,7.0,46,0.00,,,0.00,Wunderground v.1.15,2013-07-07 19:45:00,
2013-07-07 14:51:00,94.0,68.1,29.93,ENE,74,3.0,4.0,43,0.00,,,0.00,Wunderground v.1.15,2013-07-07 19:51:00,
2013-07-07 14:57:00,93.3,68.1,29.93,East,92,2.0,5.0,44,0.00,,,0.00,Wunderground v.1.15,2013-07-07 19:57:00,
2013-07-07 15:02:00,94.0,68.1,29.93,ESE,121,2.0,3.0,43,0.00,,,0.00,Wunderground v.1.15,2013-07-07 20:02:00,
2013-07-07 15:07:00,94.4,67.8,29.93,SE,137,3.0,5.0,42,0.00,,,0.00,Wunderground v.1.15,2013-07-07 20:07:00,
2013-07-07 15:13:00,93.7,67.8,29.93,ENE,76,3.0,3.0,43,0.00,,,0.00,Wunderground v.1.15,2013-07-07 20:13:00,
2013-07-07 15:19:00,93.7,67.8,29.93,SE,125,3.0,4.0,43,0.00,,,0.00,Wunderground v.1.15,2013-07-07 20:19:00,
2013-07-07 15:25:00,95.0,69.0,29.93,SE,145,5.0,8.0,43,0.00,,,0.00,weatherlink.com 1.10,2013-07-07 20:25:00,
2013-07-07 15:30:00,95.1,67.7,29.92,SSW,192,3.0,3.0,41,0.00,,,0.00,Wunderground v.1.15,2013-07-07 20:30:00,
2013-07-07 15:36:00,95.3,70.6,29.92,SE,136,1.0,3.0,45,0.00,,,0.00,Wunderground v.1.15,2013-07-07 20:36:00,
2013-07-07 15:42:00,95.6,68.1,29.92,ESE,106,2.0,10.0,41,0.00,,,0.00,Wunderground v.1.15,2013-07-07 20:42:00,
2013-07-07 15:47:00,94.3,67.7,29.92,ESE,109,3.0,10.0,42,0.00,,,0.00,Wunderground v.1.15,2013-07-07 20:47:00,
2013-07-07 15:52:00,94.9,67.5,29.92,East,85,3.0,8.0,41,0.00,,,0.00,Wunderground v.1.15,2013-07-07 20:52:00,
2013-07-07 15:58:00,95.8,67.6,29.91,SE,142,4.0,8.0,40,0.00,,,0.00,Wunderground v.1.15,2013-07-07 20:58:00,
2013-07-07 16:03:00,95.5,67.3,29.92,East,90,2.0,7.0,40,0.00,,,0.00,Wunderground v.1.15,2013-07-07 21:03:00,
2013-07-07 16:09:00,94.7,67.3,29.91,NNW,339,2.0,7.0,41,0.00,,,0.00,Wunderground v.1.15,2013-07-07 21:09:00,
2013-07-07 16:15:00,95.5,67.3,29.91,SSE,165,3.0,7.0,40,0.00,,,0.00,Wunderground v.1.15,2013-07-07 21:15:00,
2013-07-07 16:20:00,95.9,67.0,29.91,ESE,122,2.0,2.0,39,0.00,,,0.00,Wunderground v.1.15,2013-07-07 21:20:00,
2013-07-07 16:26:00,95.6,67.4,29.91,ENE,71,1.0,3.0,40,0.00,,,0.00,Wunderground v.1.15,2013-07-07 21:26:00,
2013-07-07 16:31:00,96.1,67.1,29.91,ESE,119,2.0,3.0,39,0.00,,,0.00,Wunderground v.1.15,2013-07-07 21:31:00,
2013-07-07 16:36:00,96.0,67.0,29.91,SE,138,2.0,5.0,39,0.00,,,0.00,Wunderground v.1.15,2013-07-07 21:36:00,
2013-07-07 16:42:00,96.5,66.7,29.91,ESE,120,3.0,3.0,38,0.00,,,0.00,Wunderground v.1.15,2013-07-07 21:42:00,
2013-07-07 16:43:00,96.4,66.7,29.91,SE,130,3.0,3.0,38,0.00,,,0.00,Wunderground v.1.15,2013-07-07 21:43:00,
2013-07-07 16:48:00,96.1,67.1,29.91,ESE,112,3.0,3.0,39,0.00,,,0.00,Wunderground v.1.15,2013-07-07 21:48:00,
2013-07-07 16:54:00,95.6,65.9,29.91,East,100,1.0,5.0,38,0.00,,,0.00,Wunderground v.1.15,2013-07-07 21:54:00,
2013-07-07 17:00:00,95.1,65.5,29.90,East,97,1.0,6.0,38,0.00,,,0.00,Wunderground v.1.15,2013-07-07 22:00:00,
2013-07-07 17:06:00,94.6,67.3,29.90,SE,136,1.0,6.0,41,0.00,,,0.00,Wunderground v.1.15,2013-07-07 22:06:00,
2013-07-07 17:12:00,95.8,66.0,29.90,ESE,114,5.0,10.0,38,0.00,,,0.00,weatherlink.com 1.10,2013-07-07 22:12:00,
2013-07-07 17:17:00,96.1,66.4,29.90,South,170,3.0,5.0,38,0.00,,,0.00,Wunderground v.1.15,2013-07-07 22:17:00,
2013-07-07 17:22:00,96.4,66.7,29.90,ESE,118,2.0,3.0,38,0.00,,,0.00,Wunderground v.1.15,2013-07-07 22:22:00,
2013-07-07 17:28:00,97.1,66.5,29.90,SE,144,2.0,3.0,37,0.00,,,0.00,Wunderground v.1.15,2013-07-07 22:28:00,
2013-07-07 17:34:00,97.8,67.1,29.90,ENE,63,2.0,3.0,37,0.00,,,0.00,Wunderground v.1.15,2013-07-07 22:34:00,
2013-07-07 17:39:00,98.0,66.5,29.90,ESE,123,2.0,5.0,36,0.00,,,0.00,Wunderground v.1.15,2013-07-07 22:39:00,
2013-07-07 17:45:00,97.6,66.1,29.90,SE,124,2.0,3.0,36,0.00,,,0.00,Wunderground v.1.15,2013-07-07 22:45:00,
2013-07-07 17:51:00,97.1,66.5,29.89,ENE,59,2.0,3.0,37,0.00,,,0.00,Wunderground v.1.15,2013-07-07 22:51:00,
2013-07-07 17:57:00,96.6,66.0,29.89,ESE,111,3.0,7.0,37,0.00,,,0.00,weatherlink.com 1.10,2013-07-07 22:57:00,
2013-07-07 18:02:00,96.8,66.2,29.89,South,187,2.0,3.0,37,0.00,,,0.00,Wunderground v.1.15,2013-07-07 23:02:00,
2013-07-07 18:08:00,96.9,65.5,29.89,ESE,110,2.0,3.0,36,0.00,,,0.00,Wunderground v.1.15,2013-07-07 23:08:00,
2013-07-07 18:13:00,96.5,66.0,29.89,SE,136,2.0,4.0,37,0.00,,,0.00,Wunderground v.1.15,2013-07-07 23:13:00,
2013-07-07 18:19:00,96.3,66.6,29.89,ENE,62,2.0,7.0,38,0.00,,,0.00,Wunderground v.1.15,2013-07-07 23:19:00,
2013-07-07 18:24:00,96.2,66.5,29.89,ENE,59,2.0,2.0,38,0.00,,,0.00,Wunderground v.1.15,2013-07-07 23:24:00,
2013-07-07 18:30:00,95.8,66.1,29.89,SE,130,2.0,2.0,38,0.00,,,0.00,Wunderground v.1.15,2013-07-07 23:30:00,
2013-07-07 18:36:00,95.9,66.2,29.89,ESE,103,2.0,9.0,38,0.00,,,0.00,Wunderground v.1.15,2013-07-07 23:36:00,
2013-07-07 18:42:00,96.1,66.4,29.89,SE,130,2.0,3.0,38,0.00,,,0.00,Wunderground v.1.15,2013-07-07 23:42:00,
2013-07-07 18:48:00,95.9,66.2,29.89,ENE,76,1.0,5.0,38,0.00,,,0.00,Wunderground v.1.15,2013-07-07 23:48:00,
2013-07-07 18:54:00,95.6,65.9,29.89,ESE,109,2.0,3.0,38,0.00,,,0.00,Wunderground v.1.15,2013-07-07 23:54:00,
2013-07-07 19:00:00,95.3,66.4,29.89,East,97,2.0,2.0,39,0.00,,,0.00,Wunderground v.1.15,2013-07-08 00:00:00,
2013-07-07 19:06:00,95.0,66.2,29.89,East,96,2.0,2.0,39,0.00,,,0.00,Wunderground v.1.15,2013-07-08 00:06:00,
2013-07-07 19:12:00,94.6,66.0,29.89,East,92,1.0,7.0,39,0.00,,,0.00,weatherlink.com 1.10,2013-07-08 00:12:00,
2013-07-07 19:17:00,94.2,66.2,29.89,ESE,117,2.0,5.0,40,0.00,,,0.00,Wunderground v.1.15,2013-07-08 00:17:00,
2013-07-07 19:22:00,93.8,66.5,29.89,SE,134,2.0,3.0,41,0.00,,,0.00,Wunderground v.1.15,2013-07-08 00:22:00,
2013-07-07 19:27:00,93.5,67.0,29.89,SE,128,2.0,4.0,42,0.00,,,0.00,Wunderground v.1.15,2013-07-08 00:27:00,
2013-07-07 19:33:00,93.1,66.6,29.89,ENE,61,2.0,3.0,42,0.00,,,0.00,Wunderground v.1.15,2013-07-08 00:33:00,
2013-07-07 19:39:00,93.0,66.5,29.89,SE,144,2.0,4.0,42,0.00,,,0.00,Wunderground v.1.15,2013-07-08 00:39:00,
2013-07-07 19:44:00,92.7,66.9,29.89,East,95,2.0,3.0,43,0.00,,,0.00,Wunderground v.1.15,2013-07-08 00:44:00,
2013-07-07 19:50:00,92.4,66.7,29.89,ESE,113,2.0,3.0,43,0.00,,,0.00,Wunderground v.1.15,2013-07-08 00:50:00,
2013-07-07 19:55:00,92.1,67.1,29.90,SE,128,1.0,3.0,44,0.00,,,0.00,Wunderground v.1.15,2013-07-08 00:55:00,
2013-07-07 20:00:00,91.7,66.7,29.90,SE,126,2.0,2.0,44,0.00,,,0.00,Wunderground v.1.15,2013-07-08 01:00:00,
2013-07-07 20:06:00,91.4,66.4,29.90,ESE,121,1.0,3.0,44,0.00,,,0.00,Wunderground v.1.15,2013-07-08 01:06:00,
2013-07-07 20:12:00,91.1,66.8,29.90,East,90,2.0,2.0,45,0.00,,,0.00,Wunderground v.1.15,2013-07-08 01:12:00,
2013-07-07 20:17:00,91.0,66.7,29.90,ENE,66,1.0,2.0,45,0.00,,,0.00,Wunderground v.1.15,2013-07-08 01:17:00,
2013-07-07 20:23:00,90.7,67.1,29.90,East,98,1.0,1.0,46,0.00,,,0.00,Wunderground v.1.15,2013-07-08 01:23:00,
2013-07-07 20:29:00,90.3,66.7,29.90,East,97,0.0,1.0,46,0.00,,,0.00,Wunderground v.1.15,2013-07-08 01:29:00,
2013-07-07 20:35:00,90.0,67.1,29.90,ENE,63,0.0,1.0,47,0.00,,,0.00,Wunderground v.1.15,2013-07-08 01:35:00,
2013-07-07 20:41:00,89.6,67.0,29.90,East,92,0.0,3.0,48,0.00,,,0.00,weatherlink.com 1.10,2013-07-08 01:41:00,
2013-07-07 20:46:00,89.3,67.0,29.90,East,93,0.0,2.0,48,0.00,,,0.00,Wunderground v.1.15,2013-07-08 01:46:00,
2013-07-07 20:51:00,89.1,67.5,29.90,ESE,105,1.0,3.0,49,0.00,,,0.00,Wunderground v.1.15,2013-07-08 01:51:00,
2013-07-07 20:56:00,88.9,67.3,29.90,ENE,74,1.0,8.0,49,0.00,,,0.00,Wunderground v.1.15,2013-07-08 01:56:00,
2013-07-07 21:02:00,88.6,67.0,29.90,ESE,106,1.0,2.0,49,0.00,,,0.00,Wunderground v.1.15,2013-07-08 02:02:00,
2013-07-07 21:07:00,88.4,67.4,29.90,NE,47,1.0,2.0,50,0.00,,,0.00,Wunderground v.1.15,2013-07-08 02:07:00,
2013-07-07 21:13:00,88.1,67.1,29.91,East,96,1.0,1.0,50,0.00,,,0.00,Wunderground v.1.15,2013-07-08 02:13:00,
2013-07-07 21:19:00,87.8,67.4,29.91,ENE,69,1.0,2.0,51,0.00,,,0.00,Wunderground v.1.15,2013-07-08 02:19:00,
2013-07-07 21:24:00,87.6,67.2,29.91,SE,126,1.0,2.0,51,0.00,,,0.00,Wunderground v.1.15,2013-07-08 02:24:00,
2013-07-07 21:29:00,87.4,67.6,29.91,ESE,113,1.0,2.0,52,0.00,,,0.00,Wunderground v.1.15,2013-07-08 02:29:00,
2013-07-07 21:35:00,87.1,67.3,29.91,SE,134,0.0,2.0,52,0.00,,,0.00,Wunderground v.1.15,2013-07-08 02:35:00,
2013-07-07 21:40:00,86.9,67.7,29.91,ESE,119,0.0,1.0,53,0.00,,,0.00,Wunderground v.1.15,2013-07-08 02:40:00,
2013-07-07 21:46:00,86.7,67.5,29.92,East,87,1.0,2.0,53,0.00,,,0.00,Wunderground v.1.15,2013-07-08 02:46:00,
2013-07-07 21:52:00,86.6,68.0,29.92,South,189,2.0,3.0,54,0.00,,,0.00,Wunderground v.1.15,2013-07-08 02:52:00,
2013-07-07 21:58:00,86.5,67.9,29.93,ESE,117,3.0,4.0,54,0.00,,,0.00,Wunderground v.1.15,2013-07-08 02:58:00,
2013-07-07 22:04:00,86.4,67.8,29.93,ESE,118,3.0,3.0,54,0.00,,,0.00,Wunderground v.1.15,2013-07-08 03:04:00,
2013-07-07 22:10:00,86.3,68.2,29.93,SE,138,3.0,3.0,55,0.00,,,0.00,Wunderground v.1.15,2013-07-08 03:10:00,
2013-07-07 22:16:00,86.4,68.8,29.93,South,173,4.0,4.0,56,0.00,,,0.00,Wunderground v.1.15,2013-07-08 03:16:00,
2013-07-07 22:21:00,86.3,69.3,29.94,SE,129,3.0,3.0,57,0.00,,,0.00,Wunderground v.1.15,2013-07-08 03:21:00,
2013-07-07 22:26:00,86.1,69.6,29.94,SSW,198,3.0,5.0,58,0.00,,,0.00,Wunderground v.1.15,2013-07-08 03:26:00,
2013-07-07 22:32:00,86.0,70.0,29.94,South,171,2.0,3.0,59,0.00,,,0.00,Wunderground v.1.15,2013-07-08 03:32:00,
2013-07-07 22:37:00,85.9,69.9,29.94,SE,128,2.0,4.0,59,0.00,,,0.00,Wunderground v.1.15,2013-07-08 03:37:00,
2013-07-07 22:43:00,85.9,70.0,29.94,SSE,152,2.0,10.0,60,0.00,,,0.00,weatherlink.com 1.10,2013-07-08 03:43:00,
2013-07-07 22:48:00,85.9,70.4,29.94,SE,142,3.0,4.0,60,0.00,,,0.00,Wunderground v.1.15,2013-07-08 03:48:00,
2013-07-07 22:54:00,85.7,70.7,29.94,ESE,123,3.0,8.0,61,0.00,,,0.00,Wunderground v.1.15,2013-07-08 03:54:00,
2013-07-07 22:59:00,85.5,70.5,29.95,SSE,163,3.0,8.0,61,0.00,,,0.00,Wunderground v.1.15,2013-07-08 03:59:00,
2013-07-07 23:01:00,85.4,70.9,29.94,South,185,3.0,8.0,62,0.00,,,0.00,Wunderground v.1.15,2013-07-08 04:01:00,
2013-07-07 23:02:00,85.4,70.9,29.94,ESE,120,3.0,8.0,62,0.00,,,0.00,Wunderground v.1.15,2013-07-08 04:02:00,
2013-07-07 23:05:00,85.3,70.8,29.95,SSE,163,3.0,8.0,62,0.00,,,0.00,Wunderground v.1.15,2013-07-08 04:05:00,
2013-07-07 23:07:00,85.2,71.2,29.95,South,175,3.0,8.0,63,0.00,,,0.00,Wunderground v.1.15,2013-07-08 04:07:00,
2013-07-07 23:10:00,85.2,71.2,29.95,SE,139,3.0,4.0,63,0.00,,,0.00,Wunderground v.1.15,2013-07-08 04:10:00,
2013-07-07 23:15:00,85.1,71.5,29.95,South,175,4.0,8.0,64,0.00,,,0.00,Wunderground v.1.15,2013-07-08 04:15:00,
2013-07-07 23:20:00,85.0,71.5,29.95,SSE,148,4.0,4.0,64,0.00,,,0.00,Wunderground v.1.15,2013-07-08 04:20:00,
2013-07-07 23:25:00,84.9,71.4,29.95,ESE,123,3.0,5.0,64,0.00,,,0.00,Wunderground v.1.15,2013-07-08 04:25:00,
2013-07-07 23:31:00,84.8,71.7,29.95,SSE,155,3.0,3.0,65,0.00,,,0.00,Wunderground v.1.15,2013-07-08 04:31:00,
2013-07-07 23:36:00,84.6,71.5,29.95,SSE,148,3.0,3.0,65,0.00,,,0.00,Wunderground v.1.15,2013-07-08 04:36:00,
2013-07-07 23:42:00,84.3,71.0,29.95,South,169,5.0,10.0,65,0.00,,,0.00,weatherlink.com 1.10,2013-07-08 04:42:00,
2013-07-07 23:47:00,84.1,71.5,29.95,South,173,3.0,7.0,66,0.00,,,0.00,Wunderground v.1.15,2013-07-08 04:47:00,
2013-07-07 23:52:00,84.0,71.4,29.96,South,188,3.0,4.0,66,0.00,,,0.00,Wunderground v.1.15,2013-07-08 04:52:00,
2013-07-07 23:58:00,83.9,70.9,29.96,SSE,163,3.0,9.0,65,0.00,,,0.00,Wunderground v.1.15,2013-07-08 04:58:00,